Location: Cherry Springs State Park
(41.6616°N, 77.8240°W)
Time: 17:10:29
(UTC-04:00)

Amateur Radio Satellites - All Passes

Search period start: 27 July 2016 16:40
Search period end: 28 July 2016 16:40
Location: Cherry Springs State Park, 41.6616°N, 77.8240°W

Satellite Date Start Highest point End Downlink Frequencies (MHz)
Time Altitude Azimuth
SO-50 27 Jul 16:40:46 16:45:02 34° 48° (NE) 16:49:11 436.795
BEESAT 27 Jul 16:41:30 16:45:29 27° 293° (WNW) 16:49:28 436.000
KKS-1 27 Jul 16:42:07 16:46:22 40° 99° (E) 16:50:34 437.445
GONETS M04 27 Jul 16:43:20 16:51:52 61° 282° (WNW) 17:00:31
NOAA 15 27 Jul 16:45:36 16:47:00 11° 57° (ENE) 16:48:24 137.62
PHONESAT 2.4 27 Jul 16:59:41 17:01:52 18° 153° (SSE) 17:04:04 2401.200-2431.200
NOAA 18 27 Jul 17:03:53 17:06:39 14° 57° (ENE) 17:09:24 137.9125
HORYU 2 27 Jul 17:04:03 17:08:28 61° 73° (ENE) 17:12:55 437.375
ITUPSAT 1 27 Jul 17:05:33 17:08:39 17° 297° (WNW) 17:11:43 437.325
Cosmos 2499 27 Jul 17:09:40 17:18:21 56° 283° (WNW) 17:26:51 435.465 / 435.565
MOZHAYETS 4 27 Jul 17:18:45 17:23:20 75° 286° (WNW) 17:27:52
STARS 27 Jul 17:19:49 17:24:10 50° 100° (E) 17:28:28 437.465
Cubesat XI-IV 27 Jul 17:39:17 17:43:39 26° 65° (ENE) 17:48:03 437.490
BRITE-PL 27 Jul 17:42:29 17:46:12 33° 70° (ENE) 17:49:58 437.365/2234.400
AO-7 27 Jul 17:48:43 17:54:21 20° 269° (W) 18:00:02 29.400- 29.500
CUTE-I 27 Jul 18:02:03 18:07:03 41° 69° (ENE) 18:12:04 437.470
KKS-1 27 Jul 18:19:20 18:22:39 21° 295° (WNW) 18:25:56 437.445
NOAA 15 27 Jul 18:20:40 18:25:54 79° 74° (ENE) 18:31:10 137.62
SO-50 27 Jul 18:21:27 18:25:24 28° 247° (WSW) 18:29:15 436.795
LilacSat-2 27 Jul 18:30:48 18:34:38 68° 76° (ENE) 18:38:31 437.200
DOVE 4 27 Jul 18:33:44 18:37:14 25° 67° (ENE) 18:40:54 437.250
PHONESAT 2.4 27 Jul 18:35:00 18:38:01 55° 169° (SSE) 18:41:03 2401.200-2431.200
CUBESAT XI-V 27 Jul 18:39:03 18:43:41 88° 280° (W) 18:48:18 437.345
NOAA 18 27 Jul 18:40:58 18:46:30 89° 254° (WSW) 18:52:06 137.9125
GOMX 1 27 Jul 18:42:06 18:46:14 67° 74° (ENE) 18:50:33 467.674
HORYU 2 27 Jul 18:43:23 18:45:25 13° 269° (W) 18:47:27 437.375
CINEMA 3 27 Jul 18:45:19 18:46:13 10° 59° (ENE) 18:47:07 145.822/145.860
RS-15 27 Jul 18:47:57 18:56:51 24° 260° (W) 19:05:41 29.354- 29.394
GONETS M04 27 Jul 18:47:59 18:50:50 12° 306° (NW) 18:53:42
BEESAT 3 27 Jul 18:52:36 18:56:27 61° 119° (ESE) 19:00:21 437.485
HO-68 27 Jul 18:56:11 19:01:51 26° 58° (ENE) 19:07:32 435.675
STARS 27 Jul 18:57:19 19:00:06 17° 297° (WNW) 19:02:53 437.465
BEESAT 2 27 Jul 18:59:49 19:03:28 37° 116° (ESE) 19:07:09 435.950
Cosmos 2499 27 Jul 19:11:17 19:13:33 11° 305° (NW) 19:15:50 435.465 / 435.565
PCSat 27 Jul 19:11:40 19:16:32 35° 110° (ESE) 19:21:26 145.827
Cubesat XI-IV 27 Jul 19:18:23 19:23:29 43° 262° (W) 19:28:36 437.490
BRITE-PL 27 Jul 19:21:54 19:24:50 19° 267° (W) 19:27:48 437.365/2234.400
CUTE-I 27 Jul 19:42:46 19:47:12 26° 265° (W) 19:51:41 437.470
CUBEBUG 2 27 Jul 19:47:35 19:50:08 15° 62° (ENE) 19:52:43 437.445
AAUSAT CUBESAT 2 27 Jul 19:48:48 19:50:58 14° 64° (ENE) 19:53:08 437.432
CANX-2 27 Jul 19:51:46 19:55:49 43° 72° (ENE) 19:59:52 2200.000
NOAA 15 27 Jul 20:04:08 20:06:16 12° 271° (W) 20:08:24 137.62
CUTE 1.7 + AOD 2 27 Jul 20:04:58 20:09:07 52° 74° (ENE) 20:13:17 437.475
DOVE 4 27 Jul 20:11:03 20:14:49 30° 265° (W) 20:18:47 437.250
PHONESAT 2.4 27 Jul 20:11:21 20:14:26 68° 185° (S) 20:17:30 2401.200-2431.200
CINEMA 3 27 Jul 20:18:00 20:22:31 90° 259° (W) 20:27:17 145.822/145.860
STRAND 1 27 Jul 20:19:07 20:24:10 57° 101° (E) 20:29:10 437.568
Cosmos 2491 27 Jul 20:20:39 20:24:54 15° 75° (ENE) 20:29:08 435.465 / 435.565
NOAA 18 27 Jul 20:26:11 20:27:53 11° 272° (W) 20:29:35 137.9125
BEESAT 3 27 Jul 20:32:05 20:34:30 16° 318° (NW) 20:36:56 437.485
O/OREOS (USA 219) 27 Jul 20:33:00 20:37:00 34° 105° (ESE) 20:41:02 437.305
BEESAT 2 27 Jul 20:38:17 20:41:25 22° 314° (NW) 20:44:34 435.950
ISS 27 Jul 20:38:30 20:40:24 15° 131° (SE) 20:42:18 145.825
HO-68 27 Jul 20:41:52 20:49:00 66° 257° (WSW) 20:56:11 435.675
SEEDS 27 Jul 20:43:08 20:47:23 81° 259° (W) 20:51:37 437.485
YUBILEINY 27 Jul 20:48:46 20:57:19 50° 75° (ENE) 21:05:46 435.215
COMPASS 1 27 Jul 20:53:59 20:58:11 87° 258° (WSW) 21:02:23 437.405
PCSat 27 Jul 20:54:58 20:59:54 35° 309° (NW) 21:04:53 145.827
FUNcube-1 27 Jul 20:57:13 21:01:10 31° 69° (ENE) 21:05:11 145.935
ZACube-1 27 Jul 20:58:19 21:02:23 33° 70° (ENE) 21:06:31 437.345
UWE-3 27 Jul 20:58:30 21:02:55 51° 73° (ENE) 21:07:28 435.000/436.395/437.385
AIST 2 27 Jul 21:04:32 21:08:20 38° 116° (ESE) 21:12:10 435.215
M-CUBED/EXP-1 PRIME 27 Jul 21:12:15 21:15:16 22° 60° (ENE) 21:18:28 437.505
PRISM 27 Jul 21:20:41 21:24:19 30° 97° (E) 21:27:58 437.425
CUBEBUG 2 27 Jul 21:21:38 21:26:11 64° 259° (W) 21:30:53 437.445
AAUSAT CUBESAT 2 27 Jul 21:21:57 21:26:01 52° 260° (W) 21:30:05 437.432
CANX-2 27 Jul 21:29:08 21:31:52 16° 268° (W) 21:34:35 2200.000
AUBIESAT-1 27 Jul 21:37:17 21:40:46 34° 64° (ENE) 21:44:32 437.475
Oscar 11 27 Jul 21:38:35 21:42:56 89° 254° (WSW) 21:47:19 145.826/435.025
DELFI C3 27 Jul 21:40:16 21:43:59 39° 72° (ENE) 21:47:42 145.870
CUTE 1.7 + AOD 2 27 Jul 21:43:08 21:45:16 13° 269° (W) 21:47:23 437.475
PHONESAT 2.4 27 Jul 21:47:59 21:50:43 29° 201° (SSW) 21:53:26 2401.200-2431.200
STRAND 1 27 Jul 21:59:25 22:02:53 19° 298° (WNW) 22:06:20 437.568
HUMSAT D 27 Jul 22:07:56 22:11:57 40° 72° (ENE) 22:16:00 437.325/437.525
Cosmos 2504 27 Jul 22:11:28 22:19:29 54° 76° (ENE) 22:26:51 435.465 / 435.565
Cosmos 2491 27 Jul 22:11:31 22:20:12 79° 94° (E) 22:28:55 435.465 / 435.565
O/OREOS (USA 219) 27 Jul 22:12:49 22:16:27 24° 303° (WNW) 22:20:07 437.305
ISS 27 Jul 22:13:15 22:16:29 64° 327° (NNW) 22:19:43 145.825
AO-85 27 Jul 22:15:56 22:19:50 28° 46° (NE) 22:23:27 145.980
TIGRISAT 27 Jul 22:22:15 22:24:21 13° 89° (E) 22:26:27 435.000
FUNcube-1 27 Jul 22:33:34 22:37:23 26° 265° (W) 22:41:15 145.935
ZACube-1 27 Jul 22:35:00 22:38:41 24° 266° (W) 22:42:26 437.345
UWE-3 27 Jul 22:36:49 22:39:41 16° 269° (W) 22:42:36 435.000/436.395/437.385
UNISAT 6 27 Jul 22:37:44 22:41:11 20° 93° (E) 22:44:33 437.425
AIST 2 27 Jul 22:43:36 22:46:55 23° 314° (NW) 22:50:16 435.215
YUBILEINY 27 Jul 22:46:02 22:53:49 37° 275° (W) 23:01:34 435.215
M-CUBED/EXP-1 PRIME 27 Jul 22:46:18 22:49:38 29° 260° (W) 22:53:13 437.505
ESTCUBE 1 27 Jul 22:54:51 22:58:28 24° 67° (ENE) 23:02:05 437.505/2401.250
50 SAT 27 Jul 22:55:26 22:56:42 11° 64° (ENE) 22:57:57 437.505
PRISM 27 Jul 22:56:18 22:59:28 22° 293° (WNW) 23:02:37 437.425
CUBEBUG 1 27 Jul 23:08:42 23:12:00 22° 66° (ENE) 23:15:20 437.445
VELOX 1 27 Jul 23:09:18 23:12:30 20° 65° (ENE) 23:15:43 145.980
AUBIESAT-1 27 Jul 23:12:35 23:15:22 19° 263° (W) 23:18:19 437.475
ANTELSAT 27 Jul 23:15:25 23:19:56 50° 99° (E) 23:24:20 437.575/2403.000
DELFI C3 27 Jul 23:16:34 23:19:00 16° 268° (W) 23:21:25 145.870
NANOSAT C BR1 27 Jul 23:40:56 23:43:00 13° 91° (E) 23:45:03 145.865
HUMSAT D 27 Jul 23:44:47 23:47:44 18° 267° (W) 23:50:42 437.325/437.525
DUCHIFAT 1 27 Jul 23:44:48 23:46:59 14° 91° (E) 23:49:08 145.980
DX 1 27 Jul 23:50:33 23:54:35 39° 70° (ENE) 23:58:38 434.975-435.025
ISS 27 Jul 23:51:05 23:53:24 18° 346° (NNW) 23:55:44 145.825
AISAT 27 Jul 23:52:52 23:57:11 60° 73° (ENE) 00:01:32 437.250
AO-85 27 Jul 23:56:28 00:00:14 30° 247° (WSW) 00:03:45 145.980
TIGRISAT 27 Jul 23:56:53 00:01:30 63° 286° (WNW) 00:05:57 435.000
QB50P1 28 Jul 00:02:33 00:06:05 24° 95° (E) 00:09:35 145.935-145.965
UKube-1 28 Jul 00:02:54 00:06:57 42° 71° (ENE) 00:11:02 .
Cosmos 2504 28 Jul 00:05:37 00:12:19 30° 277° (W) 00:18:37 435.465 / 435.565
POPSAT HIP 1 28 Jul 00:08:55 00:12:39 28° 96° (E) 00:16:20 437.405
Cosmos 2491 28 Jul 00:11:32 00:18:02 23° 296° (WNW) 00:24:35 435.465 / 435.565
UNISAT 6 28 Jul 00:13:42 00:18:02 40° 290° (WNW) 00:22:16 437.425
AIST 1 28 Jul 00:21:23 00:25:17 31° 76° (ENE) 00:29:09
50 SAT 28 Jul 00:26:20 00:29:53 49° 260° (W) 00:33:28 437.505
QB50P2 28 Jul 00:29:42 00:33:54 52° 100° (E) 00:38:04 145.880/145.840
ESTCUBE 1 28 Jul 00:31:05 00:35:07 32° 263° (W) 00:39:10 437.505/2401.250
POLYITAN 1 28 Jul 00:32:20 00:36:34 53° 100° (E) 00:40:44 437.675
SPROUT 28 Jul 00:34:39 00:38:55 76° 74° (ENE) 00:43:13 437.525
CUBEBUG 1 28 Jul 00:44:11 00:48:06 33° 263° (W) 00:52:03 437.445
VELOX 1 28 Jul 00:44:37 00:48:41 38° 262° (W) 00:52:49 145.980
ANTELSAT 28 Jul 00:53:11 00:56:13 18° 296° (WNW) 00:59:13 437.575/2403.000
GONETS M04 28 Jul 00:58:48 01:03:10 14° 57° (ENE) 01:07:31
NANOSAT C BR1 28 Jul 01:14:53 01:19:03 53° 287° (WNW) 01:23:13 145.865
DUCHIFAT 1 28 Jul 01:18:49 01:22:59 52° 287° (WNW) 01:27:06 145.980
Oscar 19 28 Jul 01:20:15 01:22:24 12° 89° (E) 01:24:33 437.125/150
TISAT 1 28 Jul 01:27:29 01:31:39 69° 74° (ENE) 01:35:52 437.305
DX 1 28 Jul 01:27:55 01:30:55 18° 267° (W) 01:33:57 434.975-435.025
ISS 28 Jul 01:28:48 01:30:47 15° 7° (N) 01:32:46 145.825
BUGSAT 1 28 Jul 01:30:11 01:34:29 88° 276° (W) 01:38:43 437.445
AISAT 28 Jul 01:32:14 01:34:03 12° 270° (W) 01:35:52 437.250
JAS-2 28 Jul 01:37:53 01:43:11 69° 103° (ESE) 01:48:58 435.910
QB50P1 28 Jul 01:38:07 01:41:50 29° 291° (WNW) 01:45:31 145.935-145.965
UKube-1 28 Jul 01:40:23 01:43:12 17° 267° (W) 01:46:01 .
POPSAT HIP 1 28 Jul 01:44:46 01:48:20 25° 292° (WNW) 01:51:51 437.405
SWISSCUBE 28 Jul 01:49:12 01:53:12 27° 67° (ENE) 01:57:13 437.505
AIST 1 28 Jul 01:59:21 02:02:40 22° 272° (W) 02:05:59
QB50P2 28 Jul 02:06:50 02:09:16 15° 296° (WNW) 02:11:41 145.880/145.840
POLYITAN 1 28 Jul 02:09:31 02:11:55 15° 297° (WNW) 02:14:17 437.675
BEESAT 28 Jul 02:09:58 02:14:24 39° 70° (ENE) 02:18:50 436.000
ITUPSAT 1 28 Jul 02:33:14 02:37:59 65° 73° (ENE) 02:42:46 437.325
Gurwin Techsat 1B 28 Jul 02:44:28 02:49:22 36° 97° (E) 02:54:14 435.225
MOZHAYETS 4 28 Jul 02:46:50 02:48:30 12° 61° (ENE) 02:50:10
GONETS M04 28 Jul 02:53:00 03:01:50 70° 80° (E) 03:10:37
ITAMSAT 1 28 Jul 02:55:46 02:58:34 14° 90° (E) 03:01:21 435.822/435.867
Oscar 19 28 Jul 02:57:06 03:02:17 78° 286° (WNW) 03:07:28 437.125/150
Cosmos 2499 28 Jul 03:01:28 03:09:11 56° 77° (ENE) 03:16:18 435.465 / 435.565
ISS 28 Jul 03:04:55 03:07:56 34° 26° (NNE) 03:10:57 145.825
BEESAT 3 28 Jul 03:09:39 03:13:23 37° 51° (NE) 03:17:05 437.485
BEESAT 2 28 Jul 03:17:35 03:21:00 26° 48° (NE) 03:24:25 435.950
JAS-2 28 Jul 03:24:41 03:27:50 16° 298° (WNW) 03:31:05 435.910
SWISSCUBE 28 Jul 03:26:34 03:30:52 33° 263° (W) 03:35:12 437.505
KKS-1 28 Jul 03:40:16 03:44:21 37° 70° (ENE) 03:48:28 437.445
BEESAT 28 Jul 03:48:33 03:52:17 23° 266° (W) 03:56:03 436.000
AO-7 28 Jul 03:54:29 04:01:25 28° 95° (E) 04:08:16 29.400- 29.500
PCSat 28 Jul 03:58:58 04:03:49 32° 50° (NE) 04:08:39 145.827
CUBESAT XI-V 28 Jul 04:09:36 04:10:12 10° 60° (ENE) 04:10:48 437.345
CUSAT 1 28 Jul 04:12:26 04:16:34 83° 100° (E) 04:19:48 437.405
ITUPSAT 1 28 Jul 04:13:55 04:16:15 13° 270° (W) 04:18:36 437.325
STARS 28 Jul 04:16:27 04:20:38 45° 71° (ENE) 04:24:51 437.465
MOZHAYETS 4 28 Jul 04:20:22 04:25:00 79° 258° (WSW) 04:29:40
Gurwin Techsat 1B 28 Jul 04:24:38 04:29:11 29° 294° (WNW) 04:33:42 435.225
ITAMSAT 1 28 Jul 04:33:21 04:38:31 68° 287° (WNW) 04:43:39 435.822/435.867
Oscar 19 28 Jul 04:39:41 04:40:44 11° 303° (WNW) 04:41:47 437.125/150
ISS 28 Jul 04:41:24 04:44:20 31° 223° (SW) 04:47:15 145.825
DANDE 28 Jul 04:41:53 04:47:28 64° 98° (E) 04:51:36 436.750
BEESAT 3 28 Jul 04:47:56 04:50:48 19° 248° (WSW) 04:53:39 437.485
GONETS M04 28 Jul 04:51:05 04:57:48 25° 279° (W) 05:04:32
RS-15 28 Jul 04:55:03 04:57:49 11° 92° (E) 05:00:36 29.354- 29.394
BEESAT 2 28 Jul 04:55:19 04:58:50 30° 245° (WSW) 05:02:19 435.950
Cosmos 2499 28 Jul 04:55:29 05:01:41 27° 278° (W) 05:07:34 435.465 / 435.565
HORYU 2 28 Jul 04:57:14 04:58:34 11° 90° (E) 04:59:52 437.375
KKS-1 28 Jul 05:17:44 05:21:01 20° 266° (W) 05:24:22 437.445
AIST 2 28 Jul 05:25:32 05:29:13 29° 48° (NE) 05:32:53 435.215
CUBESAT XI-V 28 Jul 05:42:13 05:46:51 89° 256° (WSW) 05:51:29 437.345
PCSat 28 Jul 05:42:15 05:47:17 39° 249° (WSW) 05:52:16 145.827
AO-7 28 Jul 05:46:27 05:54:42 65° 293° (WNW) 06:02:53 29.400- 29.500
BRITE-PL 28 Jul 05:47:10 05:49:23 13° 90° (E) 05:51:39 437.365/2234.400
STARS 28 Jul 05:54:25 05:57:12 17° 267° (W) 06:00:02 437.465
STRAND 1 28 Jul 06:00:15 06:01:50 11° 58° (ENE) 06:03:24 437.568
CUTE-I 28 Jul 06:20:07 06:23:13 15° 90° (E) 06:26:17 437.470
DANDE 28 Jul 06:28:12 06:30:11 12° 287° (WNW) 06:31:59 436.750
HORYU 2 28 Jul 06:31:07 06:35:35 69° 286° (WNW) 06:40:00 437.375
NOAA 15 28 Jul 06:35:59 06:40:31 29° 96° (E) 06:45:03 137.62
O/OREOS (USA 219) 28 Jul 06:42:09 06:46:41 69° 66° (ENE) 06:51:13 437.305
GOMX 1 28 Jul 06:43:08 06:47:10 23° 94° (E) 06:51:19 467.674
RS-15 28 Jul 06:56:16 07:07:21 61° 113° (ESE) 07:19:04 29.354- 29.394
NOAA 18 28 Jul 07:03:04 07:08:14 38° 98° (E) 07:13:19 137.9125
AIST 2 28 Jul 07:04:02 07:07:39 29° 246° (WSW) 07:11:16 435.215
BRITE-PL 28 Jul 07:23:22 07:28:13 74° 284° (WNW) 07:33:27 437.365/2234.400
Cubesat XI-IV 28 Jul 07:35:01 07:40:24 76° 103° (ESE) 07:45:43 437.490
STRAND 1 28 Jul 07:35:01 07:40:11 83° 74° (ENE) 07:45:21 437.568
LilacSat-2 28 Jul 07:38:07 07:42:01 80° 283° (WNW) 07:45:50 437.200
AO-7 28 Jul 07:41:25 07:45:53 16° 314° (NW) 07:50:21 29.400- 29.500
CUTE-I 28 Jul 07:58:25 08:03:44 67° 287° (WNW) 08:09:00 437.470
DOVE 4 28 Jul 08:08:04 08:13:14 70° 101° (ESE) 08:18:31 437.250
HO-68 28 Jul 08:10:09 08:15:49 24° 93° (E) 08:21:25 435.675
PRISM 28 Jul 08:10:37 08:13:50 23° 67° (ENE) 08:17:05 437.425
CINEMA 3 28 Jul 08:12:55 08:16:59 24° 93° (E) 08:20:59 145.822/145.860
NOAA 15 28 Jul 08:15:33 08:20:19 36° 292° (WNW) 08:25:05 137.62
GOMX 1 28 Jul 08:20:32 08:25:21 45° 288° (WNW) 08:30:25 467.674
Cosmos 2491 28 Jul 08:21:49 08:29:55 40° 72° (ENE) 08:38:00 435.465 / 435.565
O/OREOS (USA 219) 28 Jul 08:24:02 08:25:28 11° 263° (W) 08:26:52 437.305
SEEDS 28 Jul 08:28:00 08:30:36 16° 92° (E) 08:33:12 437.485
SO-50 28 Jul 08:34:29 08:39:22 85° 121° (ESE) 08:44:14 436.795
COMPASS 1 28 Jul 08:38:02 08:40:18 14° 91° (E) 08:42:33 437.405
NOAA 18 28 Jul 08:43:58 08:48:44 30° 295° (WNW) 08:53:29 137.9125
UWE-3 28 Jul 08:51:11 08:51:51 10° 87° (E) 08:52:31 435.000/436.395/437.385
AAUSAT CUBESAT 2 28 Jul 09:04:27 09:07:42 22° 94° (E) 09:10:57 437.432
RS-15 28 Jul 09:09:12 09:20:18 47° 318° (NW) 09:31:58 29.354- 29.394
CANX-2 28 Jul 09:12:01 09:16:15 85° 103° (ESE) 09:20:26 2200.000
CUBEBUG 2 28 Jul 09:12:46 09:16:49 28° 94° (E) 09:20:46 437.445
Cubesat XI-IV 28 Jul 09:16:46 09:19:48 16° 301° (WNW) 09:22:50 437.490
STRAND 1 28 Jul 09:18:21 09:19:58 11° 271° (W) 09:21:35 437.568
TIGRISAT 28 Jul 09:21:24 09:23:36 13° 61° (ENE) 09:25:49 435.000
CUTE 1.7 + AOD 2 28 Jul 09:25:14 09:29:28 79° 282° (WNW) 09:33:38 437.475
Oscar 11 28 Jul 09:26:46 09:29:30 16° 92° (E) 09:32:14 145.826/435.025
UNISAT 6 28 Jul 09:36:48 09:40:09 20° 65° (ENE) 09:43:33 437.425
PRISM 28 Jul 09:45:31 09:49:01 28° 263° (W) 09:52:33 437.425
DOVE 4 28 Jul 09:47:15 09:50:22 16° 297° (WNW) 09:53:32 437.250
CINEMA 3 28 Jul 09:49:31 09:54:12 40° 290° (WNW) 09:58:49 145.822/145.860
YUBILEINY 28 Jul 09:49:32 09:58:02 57° 90° (E) 10:06:36 435.215
HO-68 28 Jul 09:56:53 10:04:00 64° 291° (WNW) 10:11:04 435.675
SEEDS 28 Jul 10:02:34 10:06:30 41° 288° (WNW) 10:10:24 437.485
COMPASS 1 28 Jul 10:12:09 10:16:06 46° 287° (WNW) 10:20:03 437.405
ANTELSAT 28 Jul 10:13:56 10:18:21 45° 71° (ENE) 10:22:50 437.575/2403.000
SO-50 28 Jul 10:17:17 10:20:28 17° 321° (NW) 10:23:39 436.795
Cosmos 2491 28 Jul 10:18:39 10:26:49 46° 272° (W) 10:35:01 435.465 / 435.565
FUNcube-1 28 Jul 10:20:39 10:25:06 60° 101° (E) 10:29:24 145.935
ZACube-1 28 Jul 10:22:13 10:26:43 67° 101° (E) 10:31:03 437.345
UWE-3 28 Jul 10:24:15 10:28:52 76° 285° (WNW) 10:33:21 435.000/436.395/437.385
M-CUBED/EXP-1 PRIME 28 Jul 10:25:03 10:28:27 19° 98° (E) 10:31:49 437.505
NANOSAT C BR1 28 Jul 10:34:35 10:35:46 11° 61° (ENE) 10:36:59 145.865
DUCHIFAT 1 28 Jul 10:38:08 10:39:27 11° 62° (ENE) 10:40:47 145.980
AAUSAT CUBESAT 2 28 Jul 10:39:38 10:43:11 29° 290° (WNW) 10:46:44 437.432
Cosmos 2504 28 Jul 10:48:21 10:56:41 48° 88° (E) 11:04:58 435.465 / 435.565
CUBEBUG 2 28 Jul 10:49:17 10:53:24 30° 292° (WNW) 10:57:24 437.445
AUBIESAT-1 28 Jul 10:49:40 10:53:41 28° 100° (E) 10:57:38 437.475
DELFI C3 28 Jul 10:52:01 10:55:56 64° 101° (E) 10:59:50 145.870
TIGRISAT 28 Jul 10:55:02 10:59:39 72° 258° (WSW) 11:04:22 435.000
QB50P1 28 Jul 10:55:35 10:58:39 20° 66° (ENE) 11:01:45 145.935-145.965
Oscar 11 28 Jul 11:01:45 11:05:51 43° 288° (WNW) 11:09:55 145.826/435.025
POPSAT HIP 1 28 Jul 11:01:52 11:05:11 22° 67° (ENE) 11:08:31 437.405
UNISAT 6 28 Jul 11:12:06 11:16:31 45° 262° (W) 11:21:03 437.425
QB50P2 28 Jul 11:22:21 11:26:18 39° 71° (ENE) 11:30:19 145.880/145.840
POLYITAN 1 28 Jul 11:24:56 11:28:56 40° 71° (ENE) 11:32:58 437.675
HUMSAT D 28 Jul 11:26:24 11:30:36 74° 102° (ESE) 11:34:43 437.325/437.525
RS-15 28 Jul 11:27:45 11:36:58 24° 351° (N) 11:46:26 29.354- 29.394
AISAT 28 Jul 11:45:05 11:46:29 11° 90° (E) 11:47:54 437.250
HO-68 28 Jul 11:47:18 11:50:20 13° 310° (NW) 11:53:23 435.675
YUBILEINY 28 Jul 11:47:35 11:55:14 33° 291° (WNW) 12:03:01 435.215
JAS-2 28 Jul 11:51:14 11:56:16 30° 67° (ENE) 12:00:55 435.910
ANTELSAT 28 Jul 11:52:01 11:55:16 19° 268° (W) 11:58:34 437.575/2403.000
50 SAT 28 Jul 11:56:21 11:57:49 12° 92° (E) 11:59:18 437.505
FUNcube-1 28 Jul 11:58:28 12:00:48 14° 297° (WNW) 12:03:06 145.935
M-CUBED/EXP-1 PRIME 28 Jul 11:58:36 12:03:08 48° 293° (WNW) 12:07:38 437.505
ZACube-1 28 Jul 12:00:22 12:02:23 13° 298° (WNW) 12:04:23 437.345
NANOSAT C BR1 28 Jul 12:06:40 12:10:53 73° 258° (WSW) 12:15:10 145.865
DUCHIFAT 1 28 Jul 12:10:20 12:14:32 71° 258° (WSW) 12:18:48 145.980
BUGSAT 1 28 Jul 12:19:47 12:23:49 64° 74° (ENE) 12:27:56 437.445
SPROUT 28 Jul 12:22:10 12:24:08 13° 90° (E) 12:26:05 437.525
ESTCUBE 1 28 Jul 12:22:43 12:27:05 49° 100° (E) 12:31:25 437.505/2401.250
AUBIESAT-1 28 Jul 12:23:56 12:28:04 33° 296° (WNW) 12:32:11 437.475
DELFI C3 28 Jul 12:29:22 12:30:14 11° 297° (WNW) 12:31:07 145.870
QB50P1 28 Jul 12:30:14 12:34:10 37° 262° (W) 12:38:09 145.935-145.965
CUBEBUG 1 28 Jul 12:31:59 12:36:10 41° 98° (E) 12:40:20 437.445
AO-85 28 Jul 12:33:18 12:34:29 11° 106° (ESE) 12:35:39 145.980
VELOX 1 28 Jul 12:34:09 12:38:17 37° 98° (E) 12:42:24 145.980
Oscar 19 28 Jul 12:36:44 12:40:24 20° 63° (ENE) 12:44:04 437.125/150
POPSAT HIP 1 28 Jul 12:36:58 12:40:47 32° 263° (W) 12:44:38 437.405
Cosmos 2504 28 Jul 12:41:56 12:50:08 41° 288° (WNW) 12:58:20 435.465 / 435.565
AIST 1 28 Jul 12:51:53 12:54:45 18° 87° (E) 12:57:38
QB50P2 28 Jul 12:59:22 13:02:16 18° 267° (W) 13:05:12 145.880/145.840
POLYITAN 1 28 Jul 13:02:02 13:04:55 17° 267° (W) 13:07:48 437.675
HUMSAT D 28 Jul 13:04:50 13:05:35 10° 299° (WNW) 13:06:21 437.325/437.525
TISAT 1 28 Jul 13:13:58 13:14:46 10° 89° (E) 13:15:33 437.305
DX 1 28 Jul 13:14:05 13:18:28 74° 101° (ESE) 13:22:51 434.975-435.025
AISAT 28 Jul 13:18:57 13:23:24 68° 286° (WNW) 13:27:50 437.250
UKube-1 28 Jul 13:25:18 13:29:39 77° 103° (ESE) 13:33:58 .
50 SAT 28 Jul 13:28:16 13:31:40 40° 287° (WNW) 13:35:02 437.505
JAS-2 28 Jul 13:35:43 13:41:16 37° 262° (W) 13:46:21 435.910
RS-15 28 Jul 13:44:27 13:54:57 31° 26° (NNE) 14:05:28 29.354- 29.394
SPROUT 28 Jul 13:56:10 14:00:25 56° 287° (WNW) 14:04:38 437.525
BUGSAT 1 28 Jul 13:59:02 13:59:37 10° 271° (W) 14:00:13 437.445
ESTCUBE 1 28 Jul 14:00:38 14:03:30 17° 296° (WNW) 14:06:22 437.505/2401.250
GONETS M04 28 Jul 14:02:59 14:07:13 15° 75° (ENE) 14:11:29
Gurwin Techsat 1B 28 Jul 14:05:36 14:10:49 59° 72° (ENE) 14:16:03 435.225
AO-85 28 Jul 14:08:51 14:14:14 79° 121° (ESE) 14:19:24 145.980
CUBEBUG 1 28 Jul 14:09:02 14:12:09 19° 295° (WNW) 14:15:17 437.445
VELOX 1 28 Jul 14:11:09 14:14:31 22° 294° (WNW) 14:17:53 145.980
ITAMSAT 1 28 Jul 14:13:22 14:17:32 25° 64° (ENE) 14:21:42 435.822/435.867
Oscar 19 28 Jul 14:14:20 14:19:18 52° 260° (W) 14:24:20 437.125/150
AIST 1 28 Jul 14:28:09 14:32:03 35° 283° (WNW) 14:36:00
ITUPSAT 1 28 Jul 14:34:47 14:37:45 16° 92° (E) 14:40:40 437.325
CUSAT 1 28 Jul 14:43:41 14:46:36 39° 79° (E) 14:50:10 437.405
TISAT 1 28 Jul 14:46:36 14:50:51 67° 286° (WNW) 14:55:04 437.305
DX 1 28 Jul 14:52:32 14:54:03 12° 299° (WNW) 14:55:34 434.975-435.025
AO-7 28 Jul 14:53:29 15:01:08 41° 60° (ENE) 15:08:47 29.400- 29.500
UKube-1 28 Jul 15:03:55 15:05:04 11° 300° (WNW) 15:06:12 .
DANDE 28 Jul 15:20:07 15:22:23 25° 77° (ENE) 15:24:51 436.750
SWISSCUBE 28 Jul 15:25:51 15:30:34 61° 101° (E) 15:35:15 437.505
SO-50 28 Jul 15:26:59 15:29:22 14° 36° (NE) 15:31:44 436.795
Cosmos 2499 28 Jul 15:36:26 15:44:48 48° 89° (E) 15:52:58 435.465 / 435.565
BEESAT 28 Jul 15:47:02 15:51:50 90° 128° (SE) 15:56:35 436.000
Gurwin Techsat 1B 28 Jul 15:47:39 15:51:09 18° 269° (W) 15:54:39 435.225
AO-85 28 Jul 15:51:28 15:55:16 20° 319° (NW) 15:58:56 145.980
ITAMSAT 1 28 Jul 15:51:47 15:56:44 43° 261° (W) 16:01:43 435.822/435.867
GONETS M04 28 Jul 15:53:50 16:02:30 79° 95° (E) 16:11:14
HORYU 2 28 Jul 15:55:38 15:57:26 12° 61° (ENE) 15:59:14 437.375
PHONESAT 2.4 28 Jul 15:56:10 15:56:28 10° 147° (SSE) 15:56:45 2401.200-2431.200
RS-15 28 Jul 15:57:30 16:09:56 76° 54° (NE) 16:22:11 29.354- 29.394
ITUPSAT 1 28 Jul 16:11:15 16:15:54 53° 288° (WNW) 16:20:31 437.325
MOZHAYETS 4 28 Jul 16:15:47 16:19:28 23° 94° (E) 16:23:06
